TimeAKST,TemperatureF,Dew PointF,Humidity,Sea Level PressureIn,VisibilityMPH,Wind Direction,Wind SpeedMPH,Gust SpeedMPH,PrecipitationIn,Events,Conditions,WindDirDegrees,DateUTC
12:53 AM,1.9,-2.9,80,30.08,6.0,NNW,13.8,-,0.00,Snow,Light Snow,340,2012-11-14 09:53:00
1:53 AM,1.9,-4.0,76,30.10,6.0,NNW,12.7,-,0.00,Snow,Light Snow,330,2012-11-14 10:53:00
2:53 AM,1.0,-4.0,79,30.11,10.0,NNW,8.1,-,0.00,,Overcast,340,2012-11-14 11:53:00
3:53 AM,1.0,-4.0,79,30.11,6.0,North,8.1,-,0.00,Snow,Light Snow,350,2012-11-14 12:53:00
4:53 AM,1.0,-5.1,75,30.12,6.0,NNW,9.2,-,0.00,Snow,Light Snow,340,2012-11-14 13:53:00
5:53 AM,-0.0,-6.0,76,30.14,7.0,NW,12.7,-,0.00,Snow,Light Snow,320,2012-11-14 14:53:00
6:53 AM,-0.0,-6.0,76,30.16,4.0,NW,10.4,-,0.00,Snow,Light Snow,310,2012-11-14 15:53:00
7:53 AM,-0.0,-6.0,76,30.18,4.0,WNW,9.2,-,0.00,Snow,Light Snow,290,2012-11-14 16:53:00
8:53 AM,-0.0,-6.0,76,30.19,6.0,West,10.4,-,0.00,Snow,Light Snow,280,2012-11-14 17:53:00
9:53 AM,-0.9,-6.0,79,30.21,10.0,West,10.4,-,0.00,,Overcast,260,2012-11-14 18:53:00
10:19 AM,-0.4,-5.8,78,30.21,9.0,WSW,10.4,-,N/A,,Overcast,250,2012-11-14 19:19:00
10:43 AM,-0.4,-5.8,78,30.22,8.0,WSW,10.4,-,N/A,,Overcast,240,2012-11-14 19:43:00
10:53 AM,-0.9,-6.0,79,30.23,8.0,WSW,11.5,-,N/A,,Overcast,240,2012-11-14 19:53:00
11:53 AM,-2.9,-7.1,82,30.23,4.0,WSW,13.8,-,0.00,Snow,Light Snow,240,2012-11-14 20:53:00
12:53 PM,-6.0,-9.9,83,30.24,10.0,WSW,12.7,-,0.00,,Mostly Cloudy,250,2012-11-14 21:53:00
1:38 PM,-5.8,-9.4,84,30.23,9.0,WSW,13.8,-,N/A,,Scattered Clouds,240,2012-11-14 22:38:00
1:53 PM,-5.1,-9.0,83,30.24,8.0,WSW,13.8,-,N/A,,Scattered Clouds,240,2012-11-14 22:53:00
2:07 PM,-5.8,-9.4,84,30.23,5.0,WSW,13.8,-,N/A,,Mostly Cloudy,240,2012-11-14 23:07:00
2:17 PM,-5.8,-9.4,84,30.23,8.0,WSW,15.0,-,N/A,,Scattered Clouds,240,2012-11-14 23:17:00
2:53 PM,-7.1,-11.0,83,30.25,10.0,West,12.7,-,N/A,,Mostly Cloudy,260,2012-11-14 23:53:00
3:53 PM,-8.0,-13.0,79,30.24,10.0,WSW,13.8,-,N/A,,Mostly Cloudy,250,2012-11-15 00:53:00
4:53 PM,-7.1,-11.0,83,30.24,7.0,WSW,17.3,-,N/A,,Overcast,240,2012-11-15 01:53:00
5:53 PM,-8.0,-11.9,83,30.25,3.0,SW,18.4,-,N/A,,Overcast,230,2012-11-15 02:53:00
6:44 PM,-7.6,-11.2,84,30.23,3.0,SW,20.7,-,N/A,,Scattered Clouds,230,2012-11-15 03:44:00
6:53 PM,-7.1,-11.0,83,30.24,3.0,SW,19.6,-,N/A,,Scattered Clouds,230,2012-11-15 03:53:00
7:19 PM,-5.8,-9.4,84,30.23,3.0,SW,23.0,-,N/A,,Mostly Cloudy,230,2012-11-15 04:19:00
7:53 PM,-2.9,-7.1,82,30.24,1.2,WSW,23.0,-,0.00,Snow,Light Snow,240,2012-11-15 04:53:00
8:29 PM,-2.2,-5.8,85,30.23,0.8,WSW,23.0,-,0.00,Snow,Light Snow,240,2012-11-15 05:29:00
8:53 PM,-2.0,-6.0,83,30.24,0.8,SW,24.2,-,0.00,Snow,Light Snow,230,2012-11-15 05:53:00
9:53 PM,-2.0,-5.1,87,30.22,0.5,SW,25.3,-,0.00,Snow,Light Snow,230,2012-11-15 06:53:00
10:53 PM,-2.9,-7.1,82,30.23,0.5,WSW,24.2,-,0.00,Snow,Light Snow,240,2012-11-15 07:53:00
11:32 PM,-2.2,-7.6,78,30.22,1.0,SW,23.0,-,0.00,Snow,Light Snow,230,2012-11-15 08:32:00
11:43 PM,-2.2,-7.6,78,30.22,1.0,WSW,21.9,-,0.00,Snow,Light Snow,240,2012-11-15 08:43:00
11:53 PM,-2.9,-6.0,87,30.23,1.5,SW,21.9,-,0.00,Snow,Light Snow,230,2012-11-15 08:53:00